Tracking 28792 objects as of 25-Apr-2024
HD Live streaming from Space Station
objects crossing your sky now

SL-8 R/B

Track SL-8 R/B now!
10-day predictions


NORAD ID: 23093
Int'l Code: 1994-024B
Perigee: 970.6 km
Apogee: 985.2 km
Inclination: 82.9 °
Period: 104.5 minutes
Semi major axis: 7348 km
RCS: 8.1603 m2 (large)
Launch date: April 26, 1994
Source: Commonwealth of Independent States (former USSR) (CIS)
Launch site: PLESETSK MISSILE AND SPACE COMPLEX (PKMTR)

Note: This is a ROCKET BODY
Your satellite tracking list
Your tracking list is empty




NASA's NSSDC Master Catalog

Two Line Element Set (TLE):
1 23093U 94024B   24115.86265399  .00000186  00000-0  16991-3 0  9991
2 23093  82.9477  51.8144 0009925 178.1783 181.9413 13.78061694976205
Source of the keplerian elements: AFSPC